Regional Weather Roundup
Issued by NWS

Home | Current Version | Previous Version | Text Only | Print | Product List | Glossary Off
Versions: 1 2 3 4 5 6 7 8 9 10 11 12 13 14 15 16 17 18 19 20 21 22 23 24 25 26 27 28 29 30 31 32 33 34 35 36 37 38 39 40 41 42 43 44 45 46 47 48 49 50

000
ASUS43 KFSD 030710
RWRSD

WEATHER ROUNDUP FOR SOUTH DAKOTA
NATIONAL WEATHER SERVICE SIOUX FALLS SD
100 AM CST TUE MAR 03 2015

NOTE: "FAIR" INDICATES FEW OR NO CLOUDS BELOW 12,000 FEET WITH NO
SIGNIFICANT WEATHER AND/OR OBSTRUCTIONS TO VISIBILITY.


SDZ001>005-009-010-012>017-030800-
NORTHWEST AND NORTH CENTRAL SOUTH DAKOTA

CITY           SKY/WX    TMP DP  RH WIND       PRES   REMARKS
BUFFALO          N/A     18  10  71 N26G35    29.76R WCI  -1
FAITH            N/A     25  17  72 N26G32    29.75R WCI   9
MOBRIDGE       CLOUDY    31  21  66 N24G35    29.67S WCI  17
$$

SDZ012>016-024>037-041>051-057-063-072>074-030800-
SOUTHWEST AND SOUTH CENTRAL SOUTH DAKOTA

CITY           SKY/WX    TMP DP  RH WIND       PRES   REMARKS
RAPID CTY ARPT CLOUDY    31  20  63 N30G37    29.72R WCI  16
PIERRE         LGT SNOW  32  29  88 S7        29.69R FOG     WCI  26
CUSTER         LGT SNOW  22  18  85 NE13      29.58F FOG     WCI  10
ELLSWORTH AFB  HVY SNOW  28  25  86 N25G35    29.72  VSB 0   WCI  14
PHILIP         LGT SNOW  33  31  92 NW8       29.68S FOG     WCI  26
PINE RIDGE     SNOW      29  27  92 W3        29.64F VSB 1/2
SPEARFISH      LGT SNOW  23  21  93 NW10      29.77F VSB 3/4 WCI  12
WINNER         CLOUDY    33  17  51 S9        29.68F WCI  25
$$

SDZ004>011-016>023-039-040-030800-
NORTHEAST SOUTH DAKOTA

CITY           SKY/WX    TMP DP  RH WIND       PRES   REMARKS
ABERDEEN       CLOUDY    30  22  72 S15       29.72F WCI  19
WATERTOWN      CLOUDY    26  20  77 S16       29.75F WCI  14
SISSETON         N/A     28  23  81 S15       29.76F WCI  16
$$

SDZ017-020-022-023-036>040-048>070-030800-
SOUTHEAST SOUTH DAKOTA

CITY           SKY/WX    TMP DP  RH WIND       PRES   REMARKS
SIOUX FALLS    CLOUDY    27  19  72 SE14      29.80F WCI  16
HURON          CLOUDY    31  20  63 S12       29.74F WCI  22
CHAMBERLAIN    MOCLDY    32  18  56 S8        29.71S WCI  24
MITCHELL       CLOUDY    30  19  63 S12       29.76F WCI  20
YANKTON        CLOUDY    28  18  64 SE10      29.80F WCI  19
$$

ABBREVIATIONS USED IN REMARKS
   TC - TEMPERATURE IN CELSIUS
  WCI - WIND CHILL INDEX
   HX - HEAT INDEX
  VSB - VISIBILITY




USA.gov is the U.S. government's official web portal to all federal, state and local government web resources and services.